Bryce Canyon, UT

1:01 AM MST on December 08, 2019 (GMT -0700)
Bryce Canyon

Weather History for KBCE - October, 2019

Change the Weather History Date:

Saturday, October 5, 2019

  Actual Average Record
Temperature  
Mean Temperature 44 °F -  
Max Temperature 68 °F 63 °F 75 °F (1987)
Min Temperature 19 °F 30 °F 10 °F (1969)
Degree Days  
Heating Degree Days 22    
Moisture  
Dew Point 6 °F    
Average Humidity 27    
Maximum Humidity 59    
Minimum Humidity 6    
Precipitation  
Precipitation 0.00 in - - ()
Sea Level Pressure  
Sea Level Pressure 30.11 in    
Wind  
Wind Speed 8 mph (WNW)    
Max Wind Speed 18 mph    
Max Gust Speed 28 mph    
Visibility 10 miles    
Events      
Averages and records for this station are not official NWS values.
T = Trace of Precipitation, MM = Missing Value Source: NWS Daily Summary

Daily Weather History Graph

Daily Weather History Graph

Search for Another Location

Airport or City:

Astronomy

Oct. 05, 2019 Rise Set
Actual Time 7:27 AM MDT 7:05 PM MDT
Civil Twilight 7:01 AM MDT 7:32 PM MDT
Nautical Twilight 6:31 AM MDT 8:02 PM MDT
Astronomical Twilight 6:00 AM MDT 8:32 PM MDT
Moon 2:50 PM MDT (10/5) No Moon Set
Length of Visible Light 12h 30m
Length of Day
11h 38m
Waxing Crescent, 50% of the Moon is Illuminated
Oct 5
Waxing Crescent
Oct 13
Full
Oct 21
Last Quarter
Oct 27
New
Nov 4
First Quarter

Hourly Weather History & Observations

Time (MDT) Temp. Windchill Dew Point Humidity Pressure Visibility Wind Dir Wind Speed Gust Speed Precip Events Conditions
12:53 AM 36.0 °F 28.5 °F 10.9 °F 36% 30.04 in 10.0 mi NW 10.4 mph - N/A   Clear
1:53 AM 35.1 °F 29.3 °F 10.9 °F 37% 30.06 in 10.0 mi NW 6.9 mph - N/A   Clear
2:53 AM 32.0 °F 24.2 °F 10.9 °F 42% 30.06 in 10.0 mi NNW 9.2 mph - N/A   Clear
3:53 AM 28.0 °F 20.8 °F 9.0 °F 45% 30.09 in 10.0 mi NW 6.9 mph - N/A   Clear
4:53 AM 21.9 °F 15.7 °F 7.0 °F 53% 30.13 in 10.0 mi NNE 4.6 mph - N/A   Clear
5:53 AM 21.9 °F 17.2 °F 8.1 °F 55% 30.16 in 10.0 mi West 3.5 mph - N/A   Clear
6:53 AM 19.0 °F 12.3 °F 7.0 °F 59% 30.19 in 10.0 mi WNW 4.6 mph - N/A   Clear
7:53 AM 25.0 °F 17.1 °F 10.0 °F 53% 30.22 in 10.0 mi West 6.9 mph - N/A   Clear
8:53 AM 37.9 °F 34.4 °F 10.9 °F 33% 30.22 in 10.0 mi NNW 4.6 mph - N/A   Clear
9:53 AM 45.0 °F 42.6 °F 12.9 °F 27% 30.17 in 10.0 mi NNE 4.6 mph - N/A   Clear
10:53 AM 52.0 °F - 12.0 °F 20% 30.18 in 10.0 mi Variable 4.6 mph - N/A   Clear
11:53 AM 57.9 °F - 8.1 °F 14% 30.13 in 10.0 mi South 5.8 mph - N/A   Clear
12:53 PM 61.0 °F - 10.0 °F 13% 30.10 in 10.0 mi SE 8.1 mph - N/A   Clear
1:53 PM 62.1 °F - 9.0 °F 12% 30.08 in 10.0 mi Calm Calm - N/A   Clear
2:53 PM 64.0 °F - 8.1 °F 11% 30.05 in 10.0 mi SSE 5.8 mph - N/A   Clear
3:53 PM 68.0 °F - 3.0 °F 8% 30.04 in 10.0 mi NW 13.8 mph 23.0 mph N/A   Clear
4:53 PM 66.0 °F - -4.0 °F 6% 30.06 in 10.0 mi NW 18.4 mph 27.6 mph N/A   Clear
5:53 PM 63.0 °F - -5.1 °F 6% 30.08 in 10.0 mi NNW 17.3 mph 24.2 mph N/A   Clear
6:53 PM 57.9 °F - -2.9 °F 8% 30.12 in 10.0 mi NW 10.4 mph - N/A   Clear
7:53 PM 51.1 °F - -0.9 °F 12% 30.14 in 10.0 mi WNW 9.2 mph - N/A   Clear
8:53 PM 39.0 °F 36.8 °F 1.0 °F 20% 30.14 in 10.0 mi SSW 3.5 mph - N/A   Clear
9:53 PM 37.0 °F 30.4 °F 5.0 °F 26% 30.12 in 10.0 mi West 9.2 mph - N/A   Clear
10:53 PM 37.0 °F 30.4 °F 3.9 °F 25% 30.09 in 10.0 mi West 9.2 mph - N/A   Clear
11:53 PM 36.0 °F 29.0 °F 3.9 °F 26% 30.07 in 10.0 mi West 9.2 mph - N/A   Clear